Binghamton, NY

11:57 PM EDT on July 21, 2017 (GMT -0400)
Binghamton Regional-Link

Weather History for KBGM - January, 2014

Change the Weather History Date:

Wednesday, January 22, 2014

  Actual Average Record
Temperature  
Mean Temperature -4 °F 22 °F  
Max Temperature 3 °F 29 °F 58 °F (1959)
Min Temperature -11 °F 15 °F -13 °F (2005)
Degree Days  
Heating Degree Days 69 43  
Month to date heating degree days 987 940  
Since 1 July heating degree days 3726 3685  
Cooling Degree Days 0 0  
Month to date cooling degree days 0 0  
Year to date cooling degree days 0 0  
Moisture  
Dew Point -12 °F    
Average Humidity 70    
Maximum Humidity 83    
Minimum Humidity 56    
Precipitation  
Precipitation T in 0.08 in 0.63 in (1987)
Month to date precipitation 2.85 1.75  
Year to date precipitation 2.85 1.75  
Snow  
Snow T in 0.70 in 10.90 in (1987)
Month to date snowfall 20.6 16.0  
Since 1 July snowfall 53.8 40.6  
Snow Depth 2.00 in    
Sea Level Pressure  
Sea Level Pressure 29.96 in    
Wind  
Wind Speed 9 mph (NNW)    
Max Wind Speed 16 mph    
Max Gust Speed 23 mph    
Visibility 8 miles    
Events      
T = Trace of Precipitation, MM = Missing Value Source: NWS Daily Summary

Daily Weather History Graph

Daily Weather History Graph

Search for Another Location

Airport or City:

Trip Planner

Search our weather history database for the weather conditions in past years. The results will help you decide how hot, cold, wet, or windy it might be!

Date:

Astronomy

Jan. 22, 2014 Rise Set
Actual Time 7:25 AM EST 5:05 PM EST
Civil Twilight 6:55 AM EST 5:36 PM EST
Nautical Twilight 6:21 AM EST 6:10 PM EST
Astronomical Twilight 5:48 AM EST 6:43 PM EST
Moon 11:43 PM EST 10:18 AM EST
Length of Visible Light 10h 40m
Length of Day
9h 39m
Waning Gibbous, 65% of the Moon is Illuminated
Jan 22
Waning Gibbous
Jan 24
Last Quarter
Jan 30
New
Feb 6
First Quarter
Feb 14
Full

Hourly Weather History & Observations

Time (EST) Temp. Windchill Dew Point Humidity Pressure Visibility Wind Dir Wind Speed Gust Speed Precip Events Conditions
12:24 AM -5.8 °F -24.4 °F -9.4 °F 84% 29.85 in 2.5 mi NNW 11.5 mph - N/A   Overcast
12:31 AM -5.8 °F -23.4 °F -11.2 °F 77% 29.85 in 3.0 mi NNW 10.4 mph - N/A   Haze
12:53 AM -7.1 °F -25.9 °F -11.0 °F 83% 29.97 in 8.0 mi NNW 11.5 mph - N/A   Mostly Cloudy
1:05 AM -7.6 °F -26.6 °F -11.2 °F 84% 29.84 in 10.0 mi NNW 11.5 mph - N/A   Scattered Clouds
1:53 AM -8.0 °F -26.1 °F -13.0 °F 79% 29.97 in 10.0 mi North 10.4 mph - N/A   Clear
2:53 AM -9.0 °F -25.2 °F -15.0 °F 75% 29.99 in 10.0 mi North 8.1 mph - N/A   Clear
3:53 AM -9.9 °F -31.3 °F -17.0 °F 71% 29.99 in 10.0 mi North 13.8 mph - N/A   Clear
4:14 AM -9.4 °F -30.6 °F -16.6 °F 71% 29.84 in 8.0 mi North 13.8 mph - N/A   Scattered Clouds
4:25 AM -9.4 °F -29.8 °F -16.6 °F 71% 29.84 in 5.0 mi North 12.7 mph - N/A   Haze
4:53 AM -9.9 °F -29.6 °F -15.0 °F 78% 29.98 in 3.0 mi North 11.5 mph - N/A   Haze
5:19 AM -9.4 °F -29.8 °F -14.8 °F 77% 29.84 in 2.5 mi NNW 12.7 mph - N/A   Haze
5:53 AM -9.9 °F -30.5 °F -15.0 °F 78% 29.98 in 4.0 mi NNW 12.7 mph - N/A   Haze
6:53 AM -9.9 °F -31.3 °F -14.1 °F 82% 29.99 in 4.0 mi NNW 13.8 mph - N/A   Overcast
6:58 AM -9.4 °F -29.8 °F -14.8 °F 77% 29.85 in 6.0 mi NNW 12.7 mph - N/A   Haze
7:53 AM -9.9 °F -26.3 °F -15.0 °F 78% 29.99 in 10.0 mi NNW 8.1 mph - N/A   Clear
8:39 AM -7.6 °F -24.6 °F -14.8 °F 71% 29.84 in 8.0 mi NNW 9.2 mph - N/A   Scattered Clouds
8:53 AM -8.0 °F -23.9 °F -14.1 °F 75% 29.99 in 5.0 mi NNW 8.1 mph - N/A   Haze
9:53 AM -4.0 °F -23.7 °F -11.9 °F 69% 30.00 in 10.0 mi NNW 13.8 mph - N/A   Clear
10:53 AM -2.0 °F -21.9 °F -11.0 °F 66% 30.00 in 10.0 mi North 15.0 mph - N/A   Clear
11:53 AM 1.0 °F -14.0 °F -11.0 °F 57% 29.96 in 10.0 mi NNW 9.2 mph - N/A   Clear
12:53 PM 1.9 °F -16.2 °F -9.0 °F 60% 29.94 in 10.0 mi NW 13.8 mph 20.7 mph N/A   Clear
1:53 PM 1.9 °F -15.5 °F -9.9 °F 58% 29.94 in 10.0 mi NW 12.7 mph 20.7 mph N/A   Clear
2:53 PM 3.0 °F -14.1 °F -9.0 °F 57% 29.95 in 10.0 mi NNW 12.7 mph 20.7 mph N/A   Clear
3:53 PM 1.9 °F -15.5 °F -9.0 °F 60% 29.98 in 10.0 mi NNW 12.7 mph - N/A   Clear
4:53 PM 1.0 °F -14.0 °F -9.9 °F 60% 30.00 in 10.0 mi NNW 9.2 mph - N/A   Clear
5:53 PM -0.9 °F -14.1 °F -9.0 °F 69% 30.01 in 10.0 mi NW 6.9 mph - N/A   Clear
6:53 PM -2.0 °F -13.9 °F -8.0 °F 76% 30.04 in 10.0 mi NW 5.8 mph - N/A   Clear
7:53 PM -2.0 °F -13.9 °F -8.0 °F 76% 30.04 in 10.0 mi NW 5.8 mph - N/A   Clear
8:53 PM -2.0 °F -10.1 °F -7.1 °F 79% 30.04 in 10.0 mi WNW 3.5 mph - N/A   Scattered Clouds
9:53 PM -2.9 °F - -7.1 °F 82% 30.04 in 10.0 mi Calm Calm - N/A   Clear
10:53 PM -2.9 °F - -7.1 °F 82% 30.04 in 10.0 mi Calm Calm - N/A   Partly Cloudy
11:53 PM -4.0 °F - -7.1 °F 87% 30.04 in 10.0 mi Calm Calm - N/A   Scattered Clouds